This is the latest recevied weather packets stored in our database for station/object KE0PRS. If no packets are shown the sender has not sent any weather packets the latest 10 day(s).
| Time | Temp. | Humidity | Pressure | Rain* | Wind** | Luminosity | Snow |
|---|---|---|---|---|---|---|---|
| 1777036273 | 8.33° C | 62% | 1011 hPa | 0 mm | - | 45 W/m² | - |
| 1777035971 | 8.33° C | 62% | 1010.9 hPa | 0 mm | - | 41 W/m² | - |
| 1777035665 | 7.78° C | 63% | 1010.9 hPa | 0 mm | - | 38 W/m² | - |
| 1777035361 | 7.78° C | 64% | 1010.6 hPa | 0 mm | - | 40 W/m² | - |
| 1777035057 | 7.22° C | 65% | 1010.6 hPa | 0 mm | - | 41 W/m² | - |
| 1777034753 | 6.67° C | 66% | 1010.6 hPa | 0 mm | - | 32 W/m² | - |
| 1777034451 | 6.67° C | 66% | 1010.2 hPa | 0 mm | - | 30 W/m² | - |
| 1777034147 | 6.11° C | 66% | 1010.2 hPa | 0 mm | - | 28 W/m² | - |
| 1777033846 | 6.11° C | 66% | 1010.2 hPa | 0 mm | - | 26 W/m² | - |
| 1777033544 | 6.11° C | 66% | 1010.2 hPa | 0 mm | - | 23 W/m² | - |
| 1777033241 | 6.11° C | 66% | 1009.9 hPa | 0 mm | - | 21 W/m² | - |
| 1777032938 | 6.11° C | 66% | 1010.1 hPa | 0 mm | - | 18 W/m² | - |
| 1777032634 | 6.11° C | 66% | 1009.7 hPa | 0 mm | - | 15 W/m² | - |
| 1777032329 | 6.11° C | 66% | 1009.7 hPa | 0 mm | - | 12 W/m² | - |
| 1777032024 | 6.11° C | 65% | 1009.7 hPa | 0 mm | - | 9 W/m² | - |
| 1777031714 | 6.11° C | 65% | 1009.5 hPa | 0 mm | - | 6 W/m² | - |
| 1777031414 | 6.11° C | 64% | 1009.7 hPa | 0 mm | - | 3 W/m² | - |
| 1777031109 | 6.67° C | 63% | 1009.7 hPa | 0 mm | - | 2 W/m² | - |
| 1777030806 | 6.67° C | 63% | 1009.7 hPa | 0 mm | - | 1 W/m² | - |
| 1777030506 | 6.67° C | 62% | 1009.6 hPa | 0 mm | - | 0 W/m² | - |
| 1777030201 | 6.67° C | 61% | 1009.7 hPa | 0 mm | - | 0 W/m² | - |
| 1777029898 | 6.67° C | 61% | 1009.6 hPa | 0 mm | - | 0 W/m² | - |
| 1777029595 | 6.67° C | 61% | 1009.6 hPa | 0 mm | - | 0 W/m² | - |
| 1777029293 | 7.22° C | 60% | 1009.2 hPa | 0 mm | - | 0 W/m² | - |
| 1777028988 | 7.22° C | 59% | 1009.2 hPa | 0 mm | - | 0 W/m² | - |
* Rain latest hour (hover to see other rain measurements)
** Current wind speed in m/s (hover to see current wind gust speed)